DGELE EDFM-EDFH

Flight info

Callsign DGELE
Flight time N/A
Altitude 14000
Route OLIVI4W OLIVI OLIVI2J
Aircraft B60T/L-SDFGRY/C

Departure

Time 2026-04-25 14:15
Airport Mannheim-City Airport (EDFM)

Arrival

Time N/A
Airport Frankfurt-Hahn Airport (EDFH)
Time Latitude Longitude Altitude Speed Heading
2026-04-25 14:12 49.47559 8.52139 312 ft 0 kts 184°
2026-04-25 14:13 49.47554 8.52139 312 ft 4 kts 184°
2026-04-25 14:13 49.47534 8.52170 312 ft 4 kts 117°
2026-04-25 14:13 49.47487 8.52170 312 ft 12 kts 186°
2026-04-25 14:13 49.47388 8.52158 313 ft 16 kts 184°
2026-04-25 14:14 49.47282 8.52150 310 ft 15 kts 184°
2026-04-25 14:14 49.47249 8.52060 309 ft 30 kts 271°
2026-04-25 14:14 49.47274 8.51309 336 ft 98 kts 277°
2026-04-25 14:14 49.47301 8.50222 621 ft 108 kts 276°
2026-04-25 14:15 49.47296 8.49104 1178 ft 103 kts 271°
2026-04-25 14:15 49.47300 8.48716 1284 ft 111 kts 276°
2026-04-25 14:15 49.47389 8.46537 1731 ft 151 kts 259°
2026-04-25 14:15 49.46832 8.44943 1665 ft 183 kts 244°
2026-04-25 14:16 49.46371 8.43049 1578 ft 193 kts 260°
2026-04-25 14:16 49.46186 8.41064 1673 ft 192 kts 261°
2026-04-25 14:16 49.45840 8.39026 1602 ft 197 kts 255°
2026-04-25 14:16 49.45468 8.37075 2073 ft 177 kts 257°
2026-04-25 14:17 49.45364 8.35281 2658 ft 161 kts 276°
2026-04-25 14:17 49.45503 8.33504 2809 ft 176 kts 290°
2026-04-25 14:17 49.46164 8.31971 3126 ft 170 kts 317°
2026-04-25 14:17 49.47129 8.31021 3580 ft 162 kts 335°
2026-04-25 14:18 49.48125 8.30280 3947 ft 159 kts 334°
2026-04-25 14:18 49.49071 8.29573 4364 ft 156 kts 334°
2026-04-25 14:18 49.49322 8.29391 4464 ft 156 kts 335°
2026-04-25 14:18 49.50314 8.28689 4852 ft 155 kts 334°
2026-04-25 14:19 49.51255 8.28013 5406 ft 146 kts 334°
2026-04-25 14:19 49.52188 8.27339 5771 ft 152 kts 333°
2026-04-25 14:19 49.53160 8.26639 6118 ft 155 kts 334°
2026-04-25 14:19 49.54134 8.25940 6506 ft 156 kts 333°
2026-04-25 14:20 49.55120 8.25230 6888 ft 157 kts 333°
2026-04-25 14:20 49.55443 8.24999 7015 ft 157 kts 333°
2026-04-25 14:20 49.57095 8.23805 7660 ft 157 kts 333°
2026-04-25 14:20 49.58077 8.23076 8037 ft 157 kts 327°
2026-04-25 14:21 49.58815 8.21881 8418 ft 156 kts 299°
2026-04-25 14:21 49.59286 8.20355 8835 ft 156 kts 296°
2026-04-25 14:21 49.59757 8.18865 9248 ft 157 kts 297°
2026-04-25 14:21 49.60235 8.17352 9668 ft 157 kts 297°
2026-04-25 14:22 49.60713 8.15826 10064 ft 157 kts 296°
2026-04-25 14:22 49.61183 8.14321 10407 ft 158 kts 297°
2026-04-25 14:22 49.61662 8.12788 10786 ft 158 kts 297°
2026-04-25 14:22 49.62144 8.11249 11187 ft 159 kts 297°
2026-04-25 14:23 49.62624 8.09718 11562 ft 159 kts 296°
2026-04-25 14:23 49.63101 8.08185 11974 ft 160 kts 296°
2026-04-25 14:23 49.63583 8.06640 12387 ft 160 kts 297°
2026-04-25 14:23 49.64070 8.05084 12790 ft 161 kts 297°
2026-04-25 14:24 49.64557 8.03523 13171 ft 162 kts 297°
2026-04-25 14:24 49.65039 8.01973 13564 ft 162 kts 297°
2026-04-25 14:24 49.65530 8.00396 13966 ft 163 kts 297°
2026-04-25 14:24 49.66040 7.98762 14103 ft 177 kts 297°
2026-04-25 14:25 49.66594 7.96986 14110 ft 192 kts 296°
2026-04-25 14:25 49.67176 7.95115 14354 ft 190 kts 297°
2026-04-25 14:25 49.67729 7.93328 14821 ft 180 kts 297°
2026-04-25 14:25 49.67903 7.92764 14958 ft 178 kts 297°
2026-04-25 14:26 49.68836 7.89791 15275 ft 143 kts 298°
2026-04-25 14:26 49.69277 7.88358 14681 ft 154 kts 296°
2026-04-25 14:26 49.69554 7.87443 14705 ft 131 kts 297°
2026-04-25 14:26 49.70022 7.85922 14583 ft 105 kts 297°
2026-04-25 14:27 49.70326 7.84938 14360 ft 101 kts 297°
2026-04-25 14:27 49.70633 7.83946 14212 ft 106 kts 297°
2026-04-25 14:27 49.70845 7.83256 14216 ft 105 kts 297°